Temperature
30 31 31 32 32 32 32 32 31 31 31 31 30 30 30 29 28 28 27 26 25 24 24 22 22 21 20 20 20 20 20 20 19 19 19 19 19 19 18 18 18 18 18 18
31 31 32 32 32 31 31 31 31 31 31 31 30 30 30 29 28 28 27 26 26 25 24 23 22 21 21 20 20 20 20 20 19 19 19 19 19 19 19 19 18 18 18 18
31 32 31 31 31 31 31 31 31 31 31 31 30 30 30 30 29 28 27 27 26 25 24 23 22 21 21 21 20 20 20 20 20 19 19 19 19 19 19 19 18 18 18 18
31 32 31 31 31 31 31 32 31 30 31 31 31 30 30 30 29 29 28 27 26 25 25 23 22 22 21 21 21 20 20 20 20 20 19 19 19 19 19 19 19 19 19 18
31 31 31 31 31 31 31 31 31 31 31 31 31 31 31 30 30 30 29 28 27 26 25 24 23 22 22 21 21 20 20 20 20 20 19 19 19 19 19 19 19 19 19 19
31 31 31 31 31 31 31 31 30 31 31 30 30 30 30 31 30 30 30 28 27 26 25 24 23 22 22 21 21 21 20 20 20 20 20 20 19 19 19 19 19 19 19 19
30 31 31 31 31 31 31 31 30 30 30 30 30 30 30 31 30 30 30 28 27 26 25 24 23 22 22 21 21 21 20 20 20 20 20 19 19 19 19 19 19 19 19 19
30 30 31 31 31 31 31 31 30 29 30 30 30 30 30 30 29 29 29 28 27 26 26 25 24 23 22 22 21 21 20 20 20 20 20 20 20 19 19 19 19 19 18 19
30 30 30 30 31 31 30 31 32 31 30 30 30 30 30 30 30 29 29 28 27 27 26 25 24 23 22 22 21 21 20 20 20 20 20 20 20 19 19 19 19 18 18 18
30 29 30 30 30 30 31 31 31 30 29 29 29 30 30 30 30 30 29 28 27 26 26 25 24 23 23 22 21 21 20 20 20 20 20 20 20 19 19 19 19 19 19 18
30 29 30 30 30 30 30 30 30 30 30 29 29 30 31 30 30 29 29 28 27 26 26 25 24 23 23 22 21 20 20 20 20 20 20 20 19 19 19 19 19 19 18 18
29 30 29 30 30 30 30 30 30 29 29 29 29 30 30 30 30 29 28 27 26 26 25 25 24 23 22 22 21 20 20 20 20 20 20 20 19 19 19 19 19 19 18 18
28 28 28 29 29 29 29 29 30 30 30 29 29 29 30 29 29 28 27 26 25 25 25 24 23 22 22 21 21 20 20 20 20 19 19 19 19 19 18 18 18 18 18 18
27 29 28 28 29 29 29 29 29 29 30 29 29 29 29 29 28 28 26 25 25 24 24 23 22 22 21 21 20 20 20 20 19 19 19 19 19 18 18 18 18 18 18 18
27 28 28 29 29 29 29 29 29 29 29 29 29 29 29 28 28 26 26 25 24 24 23 22 22 21 21 20 20 20 20 19 19 19 19 19 19 18 18 18 18 18 18 18
27 27 27 27 28 28 28 29 29 29 29 29 29 28 29 27 27 26 25 24 24 23 22 22 21 21 20 20 20 20 20 19 19 19 19 19 19 18 18 18 18 18 18 18
26 26 26 27 28 27 27 28 28 28 28 28 28 28 28 27 26 25 25 24 23 23 22 22 21 21 20 20 20 20 19 19 19 19 19 19 18 18 18 18 18 18 17 17
25 25 26 27 26 25 28 28 28 28 28 28 28 27 27 26 25 24 24 23 23 22 22 21 21 20 20 20 20 20 19 19 19 19 18 19 18 18 18 18 17 17 17 17
25 24 25 26 26 27 27 27 27 27 27 27 27 26 26 25 25 25 23 22 22 22 21 21 21 20 20 20 19 19 19 19 19 18 18 18 18 18 18 18 17 17 17 17
24 24 25 25 25 26 27 27 26 26 26 26 26 25 25 25 26 26 23 21 21 20 20 20 20 20 19 19 19 19 19 19 19 18 18 18 18 18 17 17 17 17 16 16
24 23 24 24 25 26 25 25 25 25 25 24 24 24 24 24 24 22 21 20 20 19 19 19 19 19 19 19 19 19 19 19 18 18 18 18 18 18 17 17 17 16 16 16
24 24 24 24 24 25 24 24 24 24 22 22 22 22 22 22 21 21 20 19 19 18 18 18 19 19 19 19 19 18 18 18 18 18 18 18 17 17 17 17 16 16 16 15
23 23 24 24 24 22 22 22 21 21 21 21 21 21 21 20 20 20 19 19 18 18 18 18 18 18 18 18 18 18 18 18 17 17 17 17 17 16 16 16 16 15 15 15
22 21 22 22 23 22 21 20 20 20 20 20 20 20 20 20 20 19 19 18 17 17 17 17 17 17 17 17 17 18 17 17 17 17 17 17 16 16 16 15 15 15 15 15
21 21 21 21 22 21 20 19 19 19 19 19 19 19 19 19 19 18 18 17 17 17 17 17 17 17 17 17 17 17 17 16 16 16 16 16 16 16 15 15 15 14 14 14
20 20 21 21 21 20 20 19 18 18 18 18 18 18 18 18 18 18 17 17 16 16 16 16 16 16 16 16 16 16 16 16 16 16 15 15 15 15 15 15 14 14 14 14
Wind_Speed
6 6 4 2 3 4 3 3 2 1 0 2 2 1 3 6 7 7 7 8 8 8 7 8 7 7 7 7 7 6 6 5 4 3 2 2 2 1 1 1 2 1 1 1
7 7 3 3 3 4 5 4 2 0 1 2 2 2 2 5 7 7 7 8 8 9 8 8 8 7 8 8 7 7 6 6 5 3 2 1 1 1 1 0 1 1 1 1
9 3 2 4 5 6 6 5 3 2 2 4 4 3 4 5 6 7 7 7 7 8 9 9 9 8 8 8 8 7 6 6 5 4 3 2 2 2 1 1 1 1 1 1
8 5 5 7 6 7 6 3 4 5 6 3 4 3 3 5 6 7 8 8 8 8 9 9 9 10 9 9 8 8 7 7 6 5 4 4 3 2 1 1 1 1 1 1
7 5 6 7 6 6 4 2 4 6 7 6 6 5 2 5 5 7 7 8 8 8 9 9 9 9 9 9 8 8 8 7 7 6 6 5 4 3 2 2 1 2 2 2
6 5 5 4 4 4 3 4 6 8 8 7 4 6 2 1 2 3 6 7 8 8 9 9 9 8 8 8 8 8 8 7 7 7 6 6 5 3 3 2 2 3 2 2
9 8 6 5 7 7 7 7 6 7 6 4 2 5 2 2 1 2 3 6 8 8 8 9 9 9 9 9 9 8 8 8 7 7 6 6 5 5 5 4 3 3 2 2
9 9 7 6 8 6 7 8 7 6 6 3 3 4 1 1 0 1 3 5 7 8 8 9 9 9 9 9 9 9 9 8 8 7 6 5 5 5 4 4 3 3 3 2
6 6 5 5 5 8 7 8 8 8 8 7 4 3 2 2 2 3 4 5 6 7 7 8 8 8 9 9 9 9 9 8 8 7 7 6 6 5 4 3 4 3 3 3
5 6 6 6 6 5 6 6 6 7 6 7 6 5 2 2 1 2 4 5 5 6 7 7 7 8 8 8 9 9 9 8 8 7 7 6 6 6 5 4 3 3 3 2
7 7 7 7 7 7 7 7 6 7 7 8 6 2 2 1 1 1 2 3 4 5 6 7 7 7 8 8 8 8 8 8 8 8 7 6 6 6 5 5 4 4 3 3
6 7 7 7 5 5 7 8 9 8 7 8 9 3 3 1 0 0 0 1 2 3 5 6 7 7 7 8 7 7 7 8 7 7 7 6 6 6 6 5 5 4 4 4
4 6 8 9 9 8 8 8 9 9 9 9 10 4 3 2 1 1 1 1 2 3 4 5 6 6 6 6 6 6 6 6 6 6 6 6 6 6 6 5 5 5 4 4
5 8 9 9 5 4 7 8 9 11 10 10 10 7 3 3 2 1 1 0 1 3 4 5 6 6 5 5 5 5 5 5 5 5 6 5 6 6 6 5 5 5 4 4
5 9 10 9 7 8 10 10 10 11 11 10 8 7 5 4 2 1 1 0 1 2 4 5 5 5 5 5 5 5 5 5 5 5 5 5 5 4 4 4 4 4 4 4
4 7 9 11 10 11 12 12 12 11 11 10 9 7 4 3 2 2 1 1 1 1 2 4 5 6 6 5 5 5 5 5 5 5 5 5 4 4 4 4 4 4 4 4
5 6 8 11 9 11 14 11 11 11 9 10 10 6 4 4 3 3 2 2 2 2 2 3 4 4 5 5 5 5 5 5 5 5 5 5 5 5 4 4 4 4 4 4
6 7 7 8 8 13 6 3 7 8 8 8 7 6 5 4 4 3 2 3 3 3 2 3 3 4 4 5 5 4 5 5 5 5 5 5 5 5 5 5 5 4 4 4
8 8 7 8 12 12 7 5 6 8 8 5 5 5 5 4 5 3 0 1 2 2 2 2 3 4 3 4 4 4 5 5 5 5 5 5 5 5 5 5 5 5 4 4
7 9 9 9 11 12 4 2 3 7 9 3 4 5 5 4 6 2 1 2 1 1 1 2 3 3 3 3 3 4 5 5 5 5 5 5 5 5 5 6 6 5 5 5
9 9 12 13 12 8 1 0 4 8 3 1 3 4 5 5 4 3 3 2 2 1 1 2 3 3 3 3 3 5 5 5 5 4 5 5 5 5 5 5 5 5 5 4
9 9 10 10 12 7 3 1 3 3 4 3 3 4 4 4 4 3 3 2 2 2 2 2 3 3 3 3 4 4 5 4 4 4 4 4 5 5 4 4 4 5 5 5
6 5 5 6 3 2 2 1 2 3 4 4 4 5 5 5 4 4 3 3 2 2 2 2 2 2 3 3 3 4 4 4 4 4 4 4 4 3 3 4 4 5 5 5
5 3 5 5 5 3 2 2 3 4 4 5 5 5 5 5 4 4 3 3 2 2 2 2 2 2 2 2 2 2 2 3 4 4 4 4 4 4 4 3 4 4 4 4
5 5 6 8 6 5 5 4 5 5 5 5 5 6 5 5 5 4 4 4 3 2 2 2 2 2 2 2 2 2 2 3 4 4 3 4 4 3 3 3 1 3 2 2
7 8 9 7 5 6 6 5 6 6 6 5 5 6 6 5 5 5 4 3 3 3 2 2 3 3 2 2 2 2 2 3 3 4 4 3 3 3 3 2 1 4 2 4
Wind_Direction
206 226 232 251 284 302 296 287 316 20 144 250 259 252 177 183 195 193 192 189 187 185 178 175 181 183 181 179 178 179 179 171 178 182 186 166 160 154 139 137 114 129 125 146
207 224 252 271 258 251 256 256 261 100 141 262 273 265 198 188 200 202 198 195 194 188 182 181 182 183 185 183 184 184 188 186 192 186 195 183 163 177 138 117 118 175 174 213
228 227 221 235 234 244 251 267 279 280 249 223 250 225 189 187 196 200 207 204 200 197 190 186 187 188 188 188 188 188 188 187 195 192 190 184 176 203 177 166 167 188 202 210
232 234 233 235 240 257 253 273 268 254 254 246 258 281 178 189 197 201 205 204 205 198 193 188 186 189 192 191 187 187 186 188 190 190 197 202 201 199 191 208 181 183 203 216
217 221 231 237 248 259 277 277 255 255 263 261 245 274 178 182 212 208 203 203 202 196 191 187 187 187 190 189 187 186 186 188 188 192 197 208 215 209 205 201 176 226 206 218
231 215 240 249 237 233 217 228 229 238 249 251 261 272 255 178 224 219 200 199 200 194 187 184 183 181 186 185 185 185 184 189 189 193 199 208 215 224 234 234 223 226 213 210
213 212 212 231 227 205 224 240 238 233 235 248 235 265 293 7 290 258 210 192 191 187 184 182 183 183 186 186 186 184 182 187 190 193 201 207 214 217 223 240 237 249 254 235
216 209 203 216 235 240 236 254 262 273 273 256 208 253 302 26 301 227 202 183 179 183 185 184 185 185 187 187 187 187 185 188 191 194 197 203 208 218 220 224 246 244 262 266
229 214 179 206 232 245 234 244 270 270 270 270 255 251 226 206 199 185 177 173 177 181 181 182 183 185 185 186 186 187 185 187 192 195 193 197 205 220 225 222 234 246 257 260
240 235 199 190 207 217 255 249 250 257 268 267 249 251 241 207 216 172 172 173 172 178 179 177 180 183 182 181 181 183 185 188 191 195 199 197 202 208 214 225 233 248 257 272
243 236 212 203 219 221 208 221 241 257 268 273 269 273 51 190 251 219 183 167 172 182 180 178 180 179 177 176 176 181 185 189 194 197 199 204 202 201 201 207 219 227 237 239
228 240 236 223 217 251 242 240 239 249 252 259 272 268 90 52 48 19 62 153 173 184 183 178 176 175 177 179 178 179 186 191 194 195 196 200 199 202 206 208 213 217 226 233
211 230 230 218 206 207 227 233 244 255 256 256 260 249 115 123 118 78 66 132 165 179 179 171 170 173 178 181 182 182 187 192 192 190 196 199 201 203 211 216 217 217 217 225
242 238 247 252 255 228 226 228 236 247 252 254 256 262 259 277 277 318 355 78 158 163 174 176 170 173 176 177 180 187 191 194 191 191 197 202 208 209 212 216 218 218 215 216
240 240 243 256 260 251 248 245 239 243 258 264 265 265 269 282 295 312 304 93 118 135 162 173 173 171 175 178 183 189 192 195 196 195 201 203 203 203 208 210 214 216 217 221
238 251 245 243 241 248 251 245 242 242 247 251 257 262 266 263 265 253 243 222 174 168 170 175 177 177 180 185 193 189 192 195 194 200 208 208 204 204 207 209 211 211 213 222
230 236 246 246 237 248 245 238 236 236 242 248 252 261 254 258 272 272 257 241 236 231 203 190 188 186 187 189 192 193 192 195 194 202 209 208 208 207 209 210 206 212 215 217
234 240 242 248 237 243 244 225 236 239 244 251 255 254 252 263 266 272 278 270 254 250 243 213 203 196 193 190 185 190 190 193 198 203 207 206 205 204 203 204 206 211 214 217
229 228 241 243 240 246 232 216 230 238 243 244 248 246 252 269 252 216 216 282 276 279 269 225 205 197 188 186 183 187 191 194 200 204 207 208 205 206 207 209 209 210 211 218
204 221 237 238 248 250 226 159 236 242 234 224 245 251 260 263 253 240 10 325 296 291 293 234 206 195 188 190 191 198 203 203 206 207 210 210 208 209 214 215 213 211 209 215
200 212 230 239 245 247 65 151 216 232 242 29 281 272 264 257 281 310 318 305 294 289 271 227 209 210 206 202 201 208 213 218 217 212 214 215 213 213 213 211 211 212 214 216
226 224 225 235 243 236 80 182 245 328 2 330 310 297 288 287 283 280 284 288 289 290 261 233 220 221 216 207 205 212 219 224 219 213 215 217 219 224 207 198 207 213 218 220
235 256 250 244 251 70 67 18 360 341 326 318 309 301 293 284 280 277 275 284 289 289 268 242 235 222 215 217 217 218 215 209 208 207 210 215 213 212 208 204 208 211 216 232
221 261 255 252 236 257 272 283 309 318 316 313 307 300 296 288 284 284 284 282 281 289 280 254 247 247 236 226 227 228 210 201 202 202 202 205 205 205 205 215 224 230 235 241
257 241 245 247 256 261 248 283 302 307 305 306 307 299 297 290 288 285 283 278 275 275 276 259 250 256 251 247 239 231 200 196 198 194 200 210 211 205 202 215 264 258 267 285
241 246 253 260 264 268 268 281 292 292 294 300 300 295 293 291 293 289 280 275 277 273 271 264 263 270 269 257 249 237 199 195 198 195 203 217 220 209 210 201 184 50 41 54
Height
1508 1505 1503 1500 1499 1501 1501 1503 1505 1504 1502 1503 1504 1505 1507 1511 1513 1515 1518 1521 1523 1526 1528 1530 1531 1533 1534 1535 1536 1537 1538 1539 1540 1541 1542 1543 1544 1544 1544 1544 1544 1544 1544 1544
1505 1503 1500 1500 1501 1501 1501 1503 1504 1503 1502 1504 1504 1504 1503 1508 1511 1513 1515 1518 1521 1523 1526 1528 1530 1531 1533 1534 1535 1536 1537 1539 1540 1541 1541 1542 1543 1544 1544 1544 1544 1544 1544 1544
1502 1500 1500 1502 1502 1502 1501 1502 1503 1505 1503 1501 1503 1505 1503 1505 1508 1511 1513 1516 1518 1521 1523 1526 1528 1530 1531 1532 1534 1535 1536 1538 1539 1540 1541 1542 1542 1543 1544 1544 1544 1543 1543 1543
1498 1498 1501 1501 1501 1500 1503 1498 1501 1503 1504 1503 1504 1511 1502 1501 1504 1507 1510 1512 1515 1518 1521 1523 1525 1527 1529 1531 1532 1534 1535 1536 1537 1539 1540 1542 1542 1543 1544 1544 1544 1543 1543 1543
1498 1499 1500 1501 1500 1499 1500 1499 1500 1501 1501 1503 1500 1505 1501 1497 1501 1501 1505 1509 1512 1515 1518 1520 1523 1525 1528 1530 1531 1533 1534 1535 1536 1537 1539 1540 1541 1542 1543 1543 1542 1542 1543 1542
1496 1498 1498 1498 1498 1499 1499 1501 1501 1499 1498 1511 1503 1506 1506 1494 1497 1497 1501 1506 1509 1512 1515 1518 1521 1523 1526 1528 1529 1531 1532 1533 1534 1536 1537 1538 1539 1540 1541 1541 1542 1542 1542 1541
1499 1496 1497 1498 1498 1498 1498 1503 1510 1513 1511 1509 1499 1504 1503 1494 1495 1496 1499 1502 1506 1510 1513 1516 1519 1521 1523 1525 1527 1529 1530 1531 1533 1534 1535 1536 1537 1538 1539 1539 1540 1540 1541 1540
1501 1501 1495 1495 1496 1497 1496 1497 1511 1520 1515 1504 1502 1504 1497 1493 1496 1497 1499 1501 1504 1508 1510 1513 1516 1519 1521 1523 1525 1526 1528 1529 1531 1532 1533 1534 1535 1536 1537 1537 1538 1538 1538 1538
1495 1498 1492 1494 1495 1494 1496 1496 1491 1499 1503 1508 1502 1498 1494 1492 1494 1496 1498 1500 1503 1505 1508 1511 1514 1516 1518 1520 1522 1524 1525 1527 1528 1530 1531 1531 1532 1533 1534 1535 1535 1535 1535 1535
1491 1499 1492 1494 1495 1496 1493 1492 1494 1500 1515 1516 1507 1501 1497 1494 1493 1493 1496 1499 1501 1504 1507 1509 1512 1514 1517 1518 1520 1521 1523 1524 1526 1527 1528 1529 1530 1530 1531 1532 1532 1532 1532 1532
1490 1497 1494 1493 1495 1494 1496 1496 1496 1496 1498 1510 1513 1503 1487 1491 1492 1493 1495 1498 1501 1503 1505 1508 1510 1513 1515 1517 1518 1519 1521 1522 1523 1524 1525 1526 1527 1527 1528 1528 1529 1529 1529 1529
1492 1492 1495 1492 1490 1491 1490 1491 1493 1502 1504 1501 1503 1501 1487 1490 1492 1494 1496 1498 1501 1503 1504 1506 1509 1511 1513 1515 1516 1517 1518 1520 1521 1522 1522 1523 1523 1524 1525 1525 1526 1526 1526 1526
1493 1495 1504 1500 1496 1493 1492 1490 1489 1489 1493 1497 1501 1499 1487 1490 1493 1495 1497 1499 1501 1502 1503 1505 1507 1509 1511 1513 1515 1516 1517 1518 1519 1520 1520 1520 1520 1521 1522 1522 1523 1523 1523 1523
1495 1491 1496 1499 1492 1488 1492 1491 1490 1491 1492 1494 1493 1492 1489 1490 1492 1495 1498 1499 1500 1502 1503 1504 1506 1507 1509 1511 1512 1513 1515 1516 1517 1517 1518 1518 1518 1518 1519 1519 1520 1520 1520 1520
1494 1492 1490 1487 1486 1486 1488 1489 1489 1491 1489 1490 1488 1488 1489 1490 1492 1496 1498 1499 1500 1501 1502 1503 1504 1505 1507 1508 1510 1511 1512 1513 1514 1515 1515 1516 1516 1516 1516 1517 1517 1517 1517 1518
1493 1492 1491 1491 1487 1487 1488 1486 1486 1487 1487 1487 1487 1488 1487 1491 1493 1496 1497 1498 1499 1500 1501 1502 1503 1504 1504 1506 1507 1508 1509 1510 1511 1512 1513 1513 1513 1513 1514 1514 1514 1514 1514 1515
1491 1494 1495 1491 1487 1488 1490 1483 1484 1484 1484 1485 1487 1487 1488 1490 1492 1494 1496 1497 1497 1498 1499 1500 1501 1501 1502 1503 1504 1505 1506 1507 1508 1509 1510 1510 1510 1510 1510 1511 1511 1511 1512 1512
1495 1495 1492 1489 1494 1503 1482 1478 1480 1482 1483 1483 1484 1486 1488 1491 1493 1494 1495 1495 1496 1497 1497 1498 1498 1499 1500 1501 1502 1503 1504 1504 1505 1506 1506 1507 1507 1507 1507 1507 1508 1508 1509 1509
1491 1494 1492 1490 1491 1487 1480 1479 1481 1483 1484 1484 1485 1486 1488 1490 1490 1491 1493 1494 1494 1495 1495 1496 1496 1497 1497 1498 1499 1500 1501 1501 1502 1502 1503 1503 1503 1503 1503 1503 1504 1504 1505 1505
1491 1492 1492 1490 1494 1492 1479 1479 1482 1484 1486 1485 1485 1487 1488 1489 1486 1487 1491 1492 1492 1492 1492 1493 1493 1494 1494 1495 1496 1497 1498 1498 1498 1499 1499 1500 1500 1500 1500 1500 1500 1501 1501 1502
1489 1492 1490 1489 1489 1479 1480 1481 1483 1489 1486 1486 1486 1487 1488 1488 1489 1490 1490 1491 1491 1490 1489 1489 1490 1491 1491 1492 1492 1493 1494 1495 1495 1496 1496 1496 1497 1497 1497 1497 1497 1498 1499 1499
1484 1484 1488 1487 1489 1485 1483 1482 1484 1486 1487 1487 1488 1488 1488 1488 1488 1489 1489 1489 1488 1487 1487 1487 1487 1487 1488 1488 1489 1489 1490 1491 1491 1492 1493 1493 1494 1495 1494 1494 1494 1495 1496 1496
1483 1482 1479 1481 1483 1485 1486 1486 1488 1489 1489 1488 1488 1488 1488 1488 1487 1487 1487 1487 1486 1486 1486 1485 1485 1484 1485 1485 1486 1486 1486 1487 1488 1488 1489 1490 1491 1491 1491 1492 1492 1492 1493 1493
1484 1487 1484 1484 1482 1485 1487 1487 1488 1489 1489 1488 1488 1487 1486 1486 1485 1486 1485 1485 1484 1484 1484 1483 1483 1482 1482 1483 1483 1483 1484 1484 1485 1485 1486 1487 1487 1487 1488 1489 1489 1489 1490 1490
1484 1485 1483 1483 1484 1486 1486 1487 1488 1488 1487 1487 1486 1485 1485 1485 1484 1484 1483 1483 1482 1482 1482 1481 1481 1480 1480 1481 1481 1481 1481 1482 1482 1482 1483 1484 1484 1484 1484 1485 1486 1486 1486 1486
1484 1484 1483 1480 1483 1484 1485 1486 1486 1486 1486 1485 1485 1484 1484 1483 1482 1482 1481 1480 1480 1480 1479 1479 1479 1479 1479 1478 1478 1479 1479 1479 1479 1479 1480 1481 1482 1482 1482 1482 1482 1482 1482 1482